Location: Arrodets-la-Barthe
(43.0306°N, 0.2829°E)
Time: 15:52:52
(UTC+00:00)

Cosmos 1300 - Pass Details

Date: 24 October 2021
Orbit: 509 x 512 km, 82.5° (Epoch: 07 December)

Event Time Altitude Azimuth Distance (km) Brightness Sun altitude
Rises 17:51:47 0° 179° (S) 2,610 6.4 -9.8°
Reaches altitude 10° 17:53:54 10° 177° (S) 1,729 5.4 -10.1°
Maximum altitude 17:57:40 64° 95° (E) 573 2.6 -10.8°
Drops below altitude 10° 18:01:26 10° 14° (NNE) 1,743 5.2 -11.5°
Sets 18:03:35 0° 12° (NNE) 2,634 6.1 -11.9°
